Assiniboia, Saskatchewan

11:42 PM CST on April 24, 2017 (GMT -0600)
Assiniboia

Weather History for CWJI - October, 2012

Change the Weather History Date:

Saturday, October 6, 2012

  Actual Average (CYMJ) Record (CYMJ)
Temperature  
Mean Temperature 34 °F -  
Max Temperature 50 °F 56 °F 78 °F (2003)
Min Temperature 17 °F 35 °F 17 °F (2000)
Degree Days  
Heating Degree Days 32    
Moisture  
Dew Point 20 °F    
Average Humidity 60    
Maximum Humidity 89    
Minimum Humidity 15    
Precipitation  
Precipitation 0.00 in - - ()
Sea Level Pressure  
Sea Level Pressure 30.31 in    
Wind  
Wind Speed 9 mph ()    
Max Wind Speed 20 mph    
Max Gust Speed 28 mph    
Averages and records for this station are not official NWS values.
T = Trace of Precipitation, MM = Missing Value Source: Averaged Metar Reports

Daily Weather History Graph

Daily Weather History Graph

Search for Another Location

Airport or City:

Trip Planner

Search our weather history database for the weather conditions in past years. The results will help you decide how hot, cold, wet, or windy it might be!

Date:

Astronomy

Oct. 06, 2012 Rise Set
Actual Time 7:12 AM CST 6:30 PM CST
Civil Twilight 6:40 AM CST 7:02 PM CST
Nautical Twilight 6:02 AM CST 7:39 PM CST
Astronomical Twilight 5:25 AM CST 8:17 PM CST
Moon 10:22 PM CST (10/6) 1:34 PM CST (10/6)
Length of Visible Light 12h 22m
Length of Day
11h 18m
Waning Gibbous, 65% of the Moon is Illuminated
Oct 6
Waning Gibbous
Oct 8
Last Quarter
Oct 15
New
Oct 21
First Quarter
Oct 29
Full

Hourly Weather History & Observations

Time (CST) Temp. Windchill Dew Point Humidity Pressure Visibility Wind Dir Wind Speed Gust Speed Precip Events Conditions
12:00 AM 22 °F - 17 °F 73% 30.51 in - SSW 5.8 mph - -  
12:00 AM 22.5 °F 15.1 °F 16.9 °F 79% 30.51 in - SSW 5.8 mph - N/A   Unknown
1:00 AM 21.2 °F 11.7 °F 17.1 °F 84% 30.50 in - SW 8.1 mph - N/A   Unknown
2:00 AM 18.3 °F 8.2 °F 14.5 °F 85% 30.48 in - SW 8.1 mph - N/A   Unknown
3:00 AM 18.1 °F 7.1 °F 15.3 °F 88% 30.47 in - SW 9.2 mph - N/A   Unknown
4:00 AM 19.6 °F 11.7 °F 16.5 °F 88% 30.45 in - SW 5.8 mph - N/A   Unknown
5:00 AM 20.1 °F 8.8 °F 17.2 °F 89% 30.44 in - SW 10.4 mph - N/A   Unknown
6:00 AM 21 °F - 18 °F 82% 30.44 in - SW 9.2 mph - -  
6:00 AM 20.7 °F 10.2 °F 17.8 °F 89% 30.44 in - SW 9.2 mph - N/A   Unknown
7:00 AM 23.0 °F 12.4 °F 19.0 °F 85% 30.42 in - SW 10.4 mph - N/A   Unknown
8:00 AM 25.2 °F 16.5 °F 21.0 °F 84% 30.41 in - SW 8.1 mph - N/A   Unknown
9:00 AM 31.3 °F 21.6 °F 25.0 °F 77% 30.38 in - SW 12.7 mph - N/A   Unknown
10:00 AM 39.6 °F 31.7 °F 27.1 °F 61% 30.36 in - WSW 13.8 mph - N/A   Unknown
11:00 AM 43.2 °F 35.9 °F 25.2 °F 49% 30.33 in - WSW 15.0 mph - N/A   Unknown
12:00 PM 46 °F - 24 °F 28% 30.30 in - WSW 18.4 mph - -  
12:00 PM 46.2 °F 39.0 °F 23.5 °F 41% 30.30 in - WSW 18.4 mph - N/A   Unknown
1:00 PM 47.3 °F - 22.3 °F 37% 30.27 in - WSW 19.6 mph 26.5 mph N/A   Unknown
2:00 PM 48.9 °F - 21.4 °F 34% 30.23 in - WSW 18.4 mph 27.6 mph N/A   Unknown
4:00 PM 50.0 °F - 21.4 °F 32% 30.17 in - West 19.6 mph 25.3 mph N/A   Unknown
5:00 PM 49.5 °F - 17.6 °F 28% 30.16 in - West 18.4 mph 24.2 mph N/A   Unknown
6:00 PM 47 °F - 15 °F 15% 30.14 in - West 13.8 mph - -  
6:00 PM 47.1 °F - 14.7 °F 27% 30.14 in - West 13.8 mph - N/A   Unknown
7:00 PM 37.0 °F 31.0 °F 17.4 °F 45% 30.14 in - West 8.1 mph - N/A   Unknown
8:00 PM 38.5 °F 32.7 °F 19.6 °F 47% 30.12 in - WSW 8.1 mph - N/A   Unknown
9:00 PM 34.3 °F 27.7 °F 19.4 °F 54% 30.10 in - West 8.1 mph - N/A   Unknown
10:00 PM 34.5 °F 28.6 °F 22.6 °F 62% 30.08 in - WSW 6.9 mph - N/A   Unknown
11:00 PM 32.0 °F 25.6 °F 23.4 °F 70% 30.07 in - West 6.9 mph - N/A   Unknown